Regional Weather Roundup
Issued by NWS

Home | Current Version | Previous Version | Text Only | Print | Product List | Glossary Off
Versions: 1 2 3 4 5 6 7 8 9 10 11 12 13 14 15 16 17 18 19 20 21 22 23 24 25 26 27 28 29 30 31 32 33 34 35 36 37 38 39 40 41 42 43 44 45 46 47 48 49 50

000
ASUS43 KLMK 030310
RWRKY
KENTUCKY REGIONAL WEATHER ROUNDUP
NATIONAL WEATHER SERVICE LOUISVILLE KY
1000 PM EST FRI DEC 02 2016

NOTE "FAIR" INDICATES FEW OR NO CLOUDS BELOW 12,000 FEET
WITH NO SIGNIFICANT WEATHER AND/OR OBSTRUCTIONS TO VISIBILITY.

KYZ001>023-026-027-061>063-070>075-030400-
WESTERN AND SOUTH CENTRAL KENTUCKY

CITY           SKY/WX    TMP DP  RH WIND       PRES   REMARKS
PADUCAH        CLEAR     37  28  70 CALM      30.33R
HENDERSON      CLEAR     28  23  80 W3        30.35R
OWENSBORO      CLEAR     33  29  85 CALM      30.35R
HOPKINSVILLE   CLOUDY    38  30  72 N7        30.31S WCI  33
BOWLING GREEN  CLEAR     41  30  65 CALM      30.34R
GLASGOW        CLEAR     38  31  76 N6        30.33S WCI  33
$$

KYZ024-025-028>034-038-045-046-053-030400-
NORTH CENTRAL KENTUCKY

CITY           SKY/WX    TMP DP  RH WIND       PRES   REMARKS
LOUISVILLE/SDF CLOUDY    43  29  57 W7        30.33R
LOUISVILLE/LOU CLOUDY    43  30  60 NW8       30.34R
FORT KNOX      CLOUDY    40  30  67 N5        30.30S
$$

KYZ035>037-039>044-047>052-055>060-089>105-030400-
NORTHEAST KENTUCKY

CITY           SKY/WX    TMP DP  RH WIND       PRES   REMARKS
LEXINGTON      CLOUDY    39  29  67 CALM      30.32R
COVINGTON      CLOUDY    39  32  76 CALM      30.30R
FRANKFORT      CLOUDY    41  29  62 CALM      30.31R
$$

KYZ054-064>069-076>088-106>120-030400-
SOUTHEAST KENTUCKY

CITY           SKY/WX    TMP DP  RH WIND       PRES   REMARKS
JACKSON        CLOUDY    36  28  73 CALM      30.30R
LONDON         CLEAR     35  27  72 N6        30.31R WCI  30
SOMERSET       CLEAR     34  28  80 NE5       30.33R WCI  30
MIDDLESBORO    PTCLDY    33  30  89 CALM      30.29R
MONTICELLO     CLEAR     36  29  75 N16       30.33R WCI  26
$$




USA.gov is the U.S. government's official web portal to all federal, state and local government web resources and services.